Location: Marcé
(47.5801°N, 0.3280°W)
Time: 15:25:24
(UTC+01:00)

Vanguard 1 - Pass Details

Date: 08 December 2021
Orbit: 652 x 3830 km, 34.2° (Epoch: 19 January)

Event Time Altitude Azimuth Distance (km) Brightness Sun altitude
Rises 07:44:10 0° 279° (W) 7,720 - -8.5°
Exits shadow 07:47:23 - 274° (W) 7,200 13.9 -8.0°
Reaches altitude 10° 07:55:04 10° 255° (WSW) 6,056 13.6 -6.9°
Maximum altitude 08:00:14 12° 239° (WSW) 5,472 13.6 -6.1°
Drops below altitude 10° 08:04:49 10° 221° (SW) 5,191 13.6 -5.4°
Sets 08:12:05 0° 193° (SSW) 5,393 14.1 -4.3°
